QPF
0.00 0.00 0.01 0.01 0.02 0.02 0.02 0.02 0.02 0.02 0.02 0.02 0.02 0.03 0.03 0.03 0.03 0.03 0.03 0.03 0.03 0.04 0.04 0.03 0.02 0.03 0.03 0.02 0.02 0.03 0.03 0.02 0.01 0.01 0.01 0.01 0.01 0.01 0.01 0.02 0.03 0.03 0.04
0.00 0.00 0.01 0.01 0.02 0.02 0.03 0.02 0.02 0.02 0.02 0.02 0.03 0.03 0.03 0.03 0.02 0.02 0.02 0.02 0.02 0.03 0.04 0.04 0.04 0.02 0.03 0.02 0.02 0.03 0.02 0.01 0.00 0.00 0.00 0.01 0.02 0.02 0.02 0.02 0.03 0.03 0.03
0.00 0.00 0.01 0.01 0.02 0.03 0.03 0.02 0.02 0.02 0.02 0.02 0.02 0.03 0.04 0.04 0.03 0.02 0.02 0.03 0.03 0.03 0.05 0.04 0.04 0.03 0.02 0.03 0.03 0.03 0.01 0.00 0.00 0.00 0.00 0.01 0.02 0.03 0.03 0.01 0.03 0.04 0.03
0.00 0.01 0.02 0.03 0.04 0.04 0.04 0.04 0.04 0.02 0.01 0.01 0.01 0.03 0.05 0.05 0.04 0.04 0.04 0.04 0.04 0.04 0.05 0.06 0.05 0.04 0.02 0.02 0.02 0.02 0.01 0.01 0.01 0.00 0.00 0.01 0.02 0.03 0.04 0.03 0.03 0.04 0.02
0.01 0.02 0.04 0.05 0.06 0.05 0.05 0.05 0.05 0.03 0.02 0.01 0.01 0.01 0.04 0.04 0.04 0.04 0.06 0.05 0.04 0.04 0.05 0.06 0.05 0.04 0.04 0.03 0.02 0.02 0.01 0.01 0.01 0.00 0.00 0.01 0.02 0.05 0.05 0.04 0.03 0.03 0.01
0.01 0.02 0.03 0.06 0.08 0.05 0.03 0.04 0.04 0.04 0.03 0.02 0.01 0.01 0.02 0.03 0.03 0.05 0.08 0.07 0.06 0.05 0.05 0.05 0.05 0.04 0.04 0.03 0.02 0.02 0.01 0.01 0.01 0.00 0.01 0.01 0.02 0.04 0.02 0.01 0.01 0.01 0.01
0.01 0.01 0.03 0.05 0.06 0.04 0.04 0.04 0.04 0.05 0.04 0.03 0.02 0.01 0.02 0.03 0.04 0.04 0.06 0.06 0.06 0.07 0.08 0.07 0.05 0.05 0.05 0.03 0.03 0.02 0.01 0.01 0.01 0.00 0.01 0.01 0.02 0.03 0.02 0.01 0.01 0.01 0.01
0.02 0.02 0.02 0.03 0.05 0.05 0.03 0.03 0.04 0.04 0.04 0.03 0.03 0.02 0.02 0.04 0.04 0.04 0.03 0.03 0.03 0.05 0.07 0.07 0.06 0.04 0.03 0.02 0.01 0.01 0.01 0.01 0.01 0.00 0.01 0.02 0.03 0.02 0.02 0.01 0.02 0.01 0.02
0.02 0.03 0.04 0.03 0.03 0.05 0.06 0.05 0.04 0.04 0.04 0.03 0.03 0.03 0.02 0.03 0.03 0.03 0.03 0.03 0.03 0.03 0.04 0.05 0.06 0.04 0.02 0.01 0.01 0.00 0.00 0.00 0.01 0.01 0.01 0.01 0.02 0.02 0.02 0.01 0.01 0.02 0.02
0.01 0.02 0.03 0.04 0.03 0.04 0.06 0.06 0.05 0.05 0.05 0.04 0.03 0.02 0.02 0.02 0.03 0.03 0.03 0.04 0.04 0.03 0.04 0.04 0.05 0.05 0.03 0.01 0.01 0.00 0.00 0.00 0.00 0.00 0.00 0.01 0.01 0.02 0.02 0.02 0.02 0.02 0.02
0.01 0.02 0.01 0.03 0.05 0.05 0.05 0.07 0.08 0.07 0.06 0.04 0.03 0.02 0.02 0.02 0.02 0.02 0.02 0.03 0.03 0.03 0.03 0.04 0.05 0.06 0.05 0.03 0.02 0.01 0.00 0.00 0.00 0.00 0.00 0.01 0.02 0.02 0.02 0.03 0.04 0.03 0.03
0.02 0.02 0.02 0.02 0.02 0.03 0.03 0.06 0.08 0.08 0.09 0.08 0.05 0.04 0.03 0.02 0.01 0.01 0.01 0.02 0.03 0.02 0.03 0.03 0.04 0.06 0.07 0.05 0.03 0.02 0.01 0.00 0.00 0.00 0.00 0.01 0.02 0.03 0.02 0.03 0.04 0.03 0.05
0.02 0.02 0.02 0.02 0.02 0.02 0.02 0.02 0.03 0.04 0.06 0.07 0.06 0.04 0.03 0.03 0.03 0.03 0.02 0.02 0.03 0.02 0.02 0.02 0.04 0.04 0.05 0.05 0.04 0.02 0.01 0.01 0.00 0.01 0.01 0.01 0.02 0.03 0.03 0.04 0.05 0.04 0.06
0.01 0.02 0.03 0.03 0.03 0.02 0.02 0.02 0.02 0.02 0.04 0.05 0.06 0.04 0.02 0.02 0.02 0.03 0.03 0.02 0.02 0.03 0.02 0.02 0.03 0.03 0.03 0.03 0.03 0.02 0.01 0.01 0.00 0.01 0.01 0.00 0.02 0.04 0.05 0.05 0.05 0.05 0.06
0.01 0.02 0.03 0.04 0.04 0.03 0.03 0.02 0.02 0.02 0.03 0.05 0.06 0.06 0.04 0.01 0.01 0.02 0.03 0.03 0.03 0.02 0.02 0.02 0.03 0.04 0.04 0.03 0.02 0.01 0.01 0.01 0.01 0.00 0.00 0.00 0.01 0.04 0.05 0.05 0.03 0.04 0.07
0.02 0.02 0.03 0.03 0.04 0.04 0.04 0.03 0.03 0.03 0.02 0.03 0.04 0.05 0.05 0.03 0.01 0.01 0.02 0.02 0.03 0.03 0.02 0.02 0.03 0.03 0.04 0.05 0.03 0.02 0.01 0.01 0.01 0.01 0.01 0.00 0.01 0.02 0.03 0.03 0.03 0.05 0.07
0.01 0.02 0.02 0.03 0.04 0.05 0.04 0.03 0.03 0.03 0.02 0.02 0.03 0.03 0.03 0.03 0.02 0.02 0.01 0.01 0.01 0.03 0.03 0.02 0.03 0.03 0.04 0.04 0.04 0.03 0.03 0.02 0.01 0.01 0.01 0.01 0.01 0.01 0.01 0.02 0.04 0.07 0.09
0.01 0.02 0.03 0.03 0.04 0.04 0.04 0.03 0.04 0.04 0.03 0.02 0.02 0.02 0.02 0.02 0.02 0.01 0.02 0.01 0.01 0.02 0.03 0.03 0.03 0.03 0.04 0.05 0.05 0.04 0.04 0.03 0.02 0.01 0.01 0.00 0.00 0.00 0.01 0.02 0.05 0.08 0.08
0.01 0.02 0.04 0.03 0.03 0.03 0.04 0.06 0.05 0.06 0.04 0.02 0.02 0.01 0.01 0.01 0.01 0.01 0.02 0.02 0.02 0.03 0.03 0.03 0.03 0.03 0.04 0.05 0.06 0.06 0.06 0.05 0.03 0.02 0.01 0.01 0.00 0.00 0.01 0.03 0.07 0.07 0.07
0.01 0.02 0.05 0.04 0.03 0.03 0.03 0.06 0.06 0.07 0.06 0.03 0.01 0.01 0.00 0.01 0.01 0.01 0.02 0.03 0.03 0.03 0.04 0.04 0.03 0.03 0.04 0.05 0.06 0.07 0.07 0.06 0.04 0.02 0.02 0.02 0.01 0.01 0.03 0.06 0.07 0.07 0.08
0.01 0.01 0.03 0.05 0.04 0.03 0.04 0.04 0.05 0.06 0.06 0.04 0.02 0.01 0.01 0.01 0.01 0.01 0.01 0.02 0.03 0.03 0.03 0.04 0.04 0.03 0.04 0.04 0.05 0.06 0.08 0.07 0.05 0.02 0.01 0.02 0.03 0.04 0.07 0.07 0.06 0.06 0.08
0.01 0.01 0.02 0.04 0.06 0.05 0.04 0.03 0.03 0.05 0.05 0.03 0.03 0.02 0.01 0.01 0.01 0.01 0.01 0.02 0.02 0.03 0.04 0.04 0.04 0.04 0.04 0.04 0.03 0.04 0.07 0.08 0.05 0.03 0.02 0.02 0.03 0.06 0.09 0.09 0.07 0.06 0.06
0.01 0.01 0.01 0.02 0.03 0.04 0.04 0.04 0.03 0.03 0.04 0.04 0.04 0.03 0.02 0.02 0.02 0.02 0.01 0.02 0.02 0.03 0.04 0.04 0.04 0.04 0.04 0.04 0.04 0.05 0.05 0.05 0.04 0.04 0.03 0.03 0.04 0.05 0.06 0.07 0.07 0.08 0.07
0.00 0.00 0.01 0.01 0.02 0.03 0.04 0.04 0.03 0.02 0.02 0.04 0.04 0.04 0.04 0.03 0.03 0.03 0.03 0.03 0.04 0.04 0.04 0.04 0.04 0.04 0.04 0.04 0.05 0.05 0.05 0.04 0.04 0.04 0.05 0.05 0.04 0.05 0.05 0.05 0.05 0.06 0.07
0.01 0.01 0.01 0.01 0.02 0.02 0.03 0.03 0.04 0.03 0.03 0.02 0.04 0.05 0.05 0.03 0.03 0.03 0.03 0.04 0.05 0.05 0.06 0.05 0.04 0.04 0.04 0.04 0.04 0.05 0.05 0.05 0.04 0.04 0.04 0.05 0.05 0.05 0.04 0.04 0.05 0.05 0.05
0.02 0.02 0.02 0.02 0.02 0.02 0.03 0.03 0.03 0.03 0.03 0.04 0.03 0.04 0.05 0.04 0.03 0.03 0.03 0.02 0.04 0.06 0.08 0.06 0.05 0.05 0.05 0.05 0.05 0.05 0.05 0.04 0.04 0.03 0.03 0.04 0.05 0.05 0.04 0.03 0.03 0.04 0.04
MSLP
1018.15 1018.01 1017.84 1017.69 1017.58 1017.51 1017.44 1017.36 1017.24 1017.07 1016.86 1016.64 1016.45 1016.33 1016.29 1016.32 1016.42 1016.54 1016.64 1016.70 1016.71 1016.67 1016.61 1016.55 1016.51 1016.50 1016.52 1016.55 1016.59 1016.59 1016.58 1016.55 1016.51 1016.48 1016.50 1016.56 1016.66 1016.79 1016.91 1017.03 1017.12 1017.18 1017.23
1018.26 1018.14 1018.01 1017.91 1017.84 1017.79 1017.74 1017.65 1017.50 1017.28 1017.03 1016.76 1016.54 1016.39 1016.34 1016.38 1016.48 1016.61 1016.72 1016.79 1016.80 1016.76 1016.71 1016.67 1016.65 1016.67 1016.73 1016.79 1016.85 1016.87 1016.85 1016.79 1016.74 1016.70 1016.71 1016.77 1016.88 1017.03 1017.18 1017.32 1017.43 1017.49 1017.54
1018.39 1018.28 1018.18 1018.11 1018.08 1018.06 1018.02 1017.93 1017.77 1017.53 1017.25 1016.96 1016.71 1016.54 1016.47 1016.49 1016.57 1016.68 1016.77 1016.81 1016.80 1016.76 1016.71 1016.69 1016.71 1016.78 1016.89 1016.99 1017.08 1017.11 1017.09 1017.03 1016.95 1016.88 1016.87 1016.93 1017.04 1017.21 1017.39 1017.55 1017.68 1017.77 1017.83
1018.56 1018.46 1018.37 1018.32 1018.30 1018.30 1018.28 1018.20 1018.04 1017.80 1017.51 1017.22 1016.96 1016.78 1016.69 1016.68 1016.72 1016.77 1016.81 1016.80 1016.75 1016.69 1016.64 1016.64 1016.70 1016.82 1016.99 1017.15 1017.27 1017.33 1017.31 1017.24 1017.14 1017.05 1017.02 1017.06 1017.18 1017.35 1017.55 1017.75 1017.91 1018.02 1018.10
1018.77 1018.66 1018.58 1018.53 1018.53 1018.53 1018.52 1018.45 1018.30 1018.08 1017.81 1017.53 1017.28 1017.09 1016.98 1016.93 1016.92 1016.91 1016.88 1016.80 1016.71 1016.61 1016.55 1016.55 1016.65 1016.82 1017.03 1017.24 1017.41 1017.50 1017.51 1017.43 1017.32 1017.22 1017.17 1017.20 1017.31 1017.49 1017.71 1017.92 1018.11 1018.26 1018.37
1019.02 1018.91 1018.82 1018.77 1018.76 1018.76 1018.75 1018.68 1018.55 1018.35 1018.11 1017.85 1017.62 1017.44 1017.32 1017.24 1017.18 1017.10 1017.00 1016.86 1016.70 1016.55 1016.47 1016.47 1016.58 1016.78 1017.04 1017.29 1017.50 1017.62 1017.65 1017.59 1017.48 1017.38 1017.32 1017.35 1017.46 1017.64 1017.87 1018.10 1018.31 1018.49 1018.62
1019.30 1019.18 1019.09 1019.03 1019.01 1019.00 1018.97 1018.91 1018.78 1018.61 1018.39 1018.17 1017.96 1017.80 1017.67 1017.58 1017.48 1017.35 1017.18 1016.98 1016.76 1016.57 1016.46 1016.44 1016.54 1016.74 1017.01 1017.28 1017.52 1017.67 1017.72 1017.69 1017.61 1017.52 1017.48 1017.51 1017.63 1017.81 1018.05 1018.29 1018.51 1018.69 1018.84
1019.58 1019.48 1019.39 1019.32 1019.28 1019.25 1019.21 1019.13 1019.01 1018.84 1018.65 1018.45 1018.28 1018.13 1018.02 1017.91 1017.79 1017.63 1017.43 1017.18 1016.92 1016.68 1016.53 1016.47 1016.54 1016.71 1016.96 1017.22 1017.46 1017.62 1017.70 1017.71 1017.66 1017.61 1017.60 1017.66 1017.79 1017.99 1018.22 1018.46 1018.68 1018.86 1019.01
1019.84 1019.77 1019.70 1019.63 1019.58 1019.52 1019.46 1019.36 1019.22 1019.06 1018.87 1018.70 1018.55 1018.42 1018.32 1018.22 1018.09 1017.92 1017.70 1017.43 1017.14 1016.88 1016.68 1016.57 1016.58 1016.70 1016.88 1017.11 1017.31 1017.47 1017.57 1017.61 1017.62 1017.63 1017.67 1017.76 1017.92 1018.12 1018.35 1018.59 1018.80 1018.97 1019.11
1020.04 1020.02 1019.98 1019.93 1019.88 1019.81 1019.72 1019.59 1019.44 1019.26 1019.08 1018.91 1018.76 1018.64 1018.55 1018.46 1018.34 1018.18 1017.97 1017.70 1017.41 1017.12 1016.89 1016.73 1016.66 1016.69 1016.80 1016.95 1017.10 1017.24 1017.34 1017.42 1017.48 1017.55 1017.65 1017.79 1017.97 1018.19 1018.42 1018.63 1018.83 1018.98 1019.10
1020.15 1020.19 1020.20 1020.19 1020.15 1020.08 1019.98 1019.83 1019.66 1019.47 1019.27 1019.08 1018.93 1018.82 1018.72 1018.63 1018.53 1018.39 1018.19 1017.94 1017.67 1017.38 1017.12 1016.91 1016.77 1016.70 1016.71 1016.76 1016.85 1016.95 1017.04 1017.14 1017.25 1017.38 1017.54 1017.73 1017.94 1018.16 1018.38 1018.58 1018.75 1018.89 1019.00
1020.14 1020.26 1020.34 1020.38 1020.38 1020.32 1020.22 1020.07 1019.88 1019.67 1019.45 1019.25 1019.08 1018.95 1018.84 1018.75 1018.65 1018.52 1018.35 1018.13 1017.88 1017.61 1017.34 1017.09 1016.88 1016.73 1016.64 1016.59 1016.59 1016.64 1016.71 1016.83 1016.97 1017.15 1017.36 1017.59 1017.82 1018.05 1018.25 1018.43 1018.57 1018.68 1018.78
1020.05 1020.23 1020.39 1020.49 1020.53 1020.50 1020.42 1020.27 1020.08 1019.86 1019.63 1019.42 1019.23 1019.07 1018.93 1018.82 1018.71 1018.59 1018.44 1018.26 1018.04 1017.79 1017.52 1017.26 1017.00 1016.78 1016.59 1016.46 1016.38 1016.37 1016.42 1016.53 1016.70 1016.91 1017.15 1017.40 1017.64 1017.86 1018.04 1018.19 1018.30 1018.39 1018.49
1019.91 1020.15 1020.37 1020.52 1020.61 1020.62 1020.55 1020.43 1020.25 1020.04 1019.81 1019.59 1019.38 1019.19 1019.03 1018.89 1018.76 1018.63 1018.48 1018.32 1018.13 1017.91 1017.67 1017.40 1017.12 1016.84 1016.60 1016.39 1016.25 1016.19 1016.20 1016.30 1016.48 1016.70 1016.96 1017.22 1017.45 1017.64 1017.79 1017.90 1017.98 1018.05 1018.13
1019.82 1020.10 1020.34 1020.53 1020.64 1020.68 1020.64 1020.53 1020.38 1020.19 1019.99 1019.77 1019.56 1019.35 1019.16 1018.98 1018.82 1018.66 1018.51 1018.35 1018.18 1017.99 1017.76 1017.50 1017.22 1016.93 1016.65 1016.40 1016.21 1016.11 1016.10 1016.18 1016.35 1016.57 1016.83 1017.07 1017.28 1017.44 1017.54 1017.61 1017.64 1017.68 1017.76
1019.89 1020.16 1020.40 1020.58 1020.68 1020.71 1020.68 1020.59 1020.47 1020.31 1020.14 1019.96 1019.76 1019.55 1019.33 1019.12 1018.91 1018.72 1018.54 1018.37 1018.20 1018.02 1017.81 1017.58 1017.31 1017.02 1016.73 1016.47 1016.26 1016.13 1016.10 1016.17 1016.32 1016.53 1016.77 1016.99 1017.16 1017.28 1017.34 1017.35 1017.34 1017.35 1017.39
1020.23 1020.43 1020.61 1020.74 1020.79 1020.78 1020.72 1020.63 1020.52 1020.40 1020.27 1020.12 1019.96 1019.76 1019.54 1019.30 1019.05 1018.81 1018.59 1018.39 1018.20 1018.02 1017.83 1017.61 1017.37 1017.10 1016.82 1016.56 1016.35 1016.22 1016.18 1016.23 1016.37 1016.56 1016.77 1016.96 1017.10 1017.18 1017.19 1017.15 1017.10 1017.07 1017.08
1020.89 1020.99 1021.06 1021.08 1021.03 1020.93 1020.81 1020.67 1020.56 1020.45 1020.36 1020.26 1020.13 1019.96 1019.75 1019.50 1019.22 1018.94 1018.67 1018.43 1018.21 1018.01 1017.82 1017.62 1017.39 1017.15 1016.90 1016.66 1016.47 1016.34 1016.30 1016.34 1016.46 1016.63 1016.81 1016.97 1017.08 1017.12 1017.10 1017.02 1016.93 1016.86 1016.83
1021.89 1021.86 1021.78 1021.64 1021.45 1021.21 1020.98 1020.77 1020.61 1020.49 1020.41 1020.34 1020.25 1020.12 1019.93 1019.68 1019.39 1019.07 1018.76 1018.47 1018.22 1017.99 1017.79 1017.59 1017.38 1017.16 1016.94 1016.73 1016.56 1016.44 1016.40 1016.44 1016.55 1016.69 1016.85 1016.99 1017.07 1017.09 1017.04 1016.95 1016.83 1016.73 1016.66
1023.17 1022.99 1022.75 1022.44 1022.06 1021.66 1021.28 1020.95 1020.70 1020.53 1020.44 1020.38 1020.31 1020.21 1020.04 1019.80 1019.50 1019.17 1018.83 1018.51 1018.22 1017.96 1017.74 1017.54 1017.35 1017.15 1016.95 1016.77 1016.62 1016.51 1016.48 1016.51 1016.59 1016.72 1016.86 1016.97 1017.04 1017.05 1017.00 1016.90 1016.78 1016.66 1016.57
1024.63 1024.31 1023.91 1023.41 1022.86 1022.28 1021.72 1021.24 1020.87 1020.62 1020.46 1020.37 1020.30 1020.21 1020.06 1019.83 1019.55 1019.21 1018.86 1018.52 1018.20 1017.93 1017.70 1017.50 1017.31 1017.13 1016.95 1016.79 1016.66 1016.56 1016.52 1016.53 1016.60 1016.70 1016.81 1016.91 1016.97 1016.98 1016.94 1016.86 1016.76 1016.65 1016.55
1026.12 1025.68 1025.15 1024.51 1023.79 1023.04 1022.31 1021.67 1021.15 1020.77 1020.51 1020.35 1020.24 1020.13 1019.98 1019.77 1019.50 1019.18 1018.83 1018.50 1018.18 1017.91 1017.67 1017.47 1017.30 1017.13 1016.97 1016.83 1016.70 1016.60 1016.55 1016.54 1016.57 1016.64 1016.72 1016.80 1016.85 1016.87 1016.86 1016.81 1016.74 1016.67 1016.59
1027.48 1026.98 1026.36 1025.62 1024.78 1023.90 1023.03 1022.23 1021.55 1021.02 1020.63 1020.35 1020.16 1020.00 1019.83 1019.62 1019.36 1019.07 1018.76 1018.44 1018.15 1017.90 1017.68 1017.50 1017.34 1017.19 1017.05 1016.91 1016.78 1016.67 1016.60 1016.56 1016.55 1016.57 1016.62 1016.67 1016.71 1016.74 1016.75 1016.74 1016.72 1016.69 1016.66
1028.61 1028.07 1027.43 1026.65 1025.76 1024.80 1023.83 1022.90 1022.07 1021.38 1020.84 1020.43 1020.12 1019.87 1019.65 1019.43 1019.18 1018.91 1018.64 1018.37 1018.12 1017.91 1017.73 1017.57 1017.44 1017.31 1017.19 1017.06 1016.93 1016.81 1016.70 1016.62 1016.57 1016.54 1016.54 1016.55 1016.57 1016.60 1016.63 1016.65 1016.68 1016.71 1016.74
1029.43 1028.91 1028.29 1027.54 1026.66 1025.68 1024.66 1023.64 1022.70 1021.86 1021.16 1020.59 1020.15 1019.79 1019.50 1019.23 1018.98 1018.74 1018.51 1018.29 1018.10 1017.94 1017.80 1017.69 1017.59 1017.50 1017.39 1017.27 1017.14 1017.00 1016.87 1016.75 1016.64 1016.56 1016.50 1016.47 1016.46 1016.48 1016.51 1016.56 1016.63 1016.71 1016.80
1029.93 1029.46 1028.90 1028.22 1027.41 1026.47 1025.45 1024.40 1023.38 1022.42 1021.58 1020.86 1020.27 1019.79 1019.41 1019.08 1018.81 1018.58 1018.38 1018.21 1018.08 1017.97 1017.89 1017.83 1017.77 1017.70 1017.62 1017.51 1017.38 1017.23 1017.08 1016.92 1016.77 1016.63 1016.53 1016.45 1016.41 1016.40 1016.43 1016.49 1016.59 1016.70 1016.83
Thickness
5718 5717 5713 5713 5712 5712 5712 5712 5712 5711 5712 5712 5712 5713 5713 5713 5713 5713 5714 5714 5714 5715 5715 5716 5716 5716 5716 5717 5717 5717 5717 5717 5717 5718 5718 5718 5718 5718 5718 5719 5720 5719 5718
5717 5714 5710 5710 5709 5708 5708 5708 5708 5707 5707 5708 5708 5709 5709 5709 5710 5710 5710 5711 5711 5712 5712 5712 5713 5713 5713 5713 5713 5713 5714 5714 5714 5714 5715 5715 5715 5715 5715 5716 5716 5716 5715
5712 5711 5707 5706 5705 5704 5704 5704 5703 5703 5703 5704 5704 5705 5705 5706 5706 5707 5707 5707 5708 5708 5708 5709 5709 5709 5709 5709 5709 5710 5710 5710 5710 5711 5712 5714 5712 5711 5712 5712 5712 5712 5712
5708 5706 5704 5702 5701 5700 5700 5699 5699 5699 5699 5699 5700 5701 5701 5702 5702 5703 5703 5704 5704 5704 5705 5705 5705 5705 5705 5705 5705 5706 5706 5706 5706 5708 5711 5712 5710 5708 5708 5708 5708 5708 5708
5702 5701 5699 5697 5696 5695 5695 5695 5694 5694 5694 5695 5695 5696 5697 5698 5698 5699 5699 5700 5700 5700 5701 5701 5701 5701 5701 5701 5701 5701 5701 5702 5703 5705 5707 5707 5706 5704 5704 5704 5704 5705 5704
5696 5695 5693 5691 5691 5690 5690 5690 5690 5689 5690 5690 5691 5691 5692 5693 5694 5695 5695 5695 5696 5696 5696 5696 5697 5697 5697 5697 5697 5697 5697 5698 5700 5702 5703 5702 5702 5700 5700 5700 5700 5701 5701
5690 5689 5687 5685 5685 5684 5684 5684 5684 5684 5685 5685 5686 5686 5687 5688 5689 5689 5690 5690 5691 5692 5692 5692 5692 5692 5692 5692 5692 5692 5693 5694 5697 5698 5698 5698 5696 5696 5696 5696 5696 5697 5696
5683 5682 5681 5679 5679 5678 5678 5678 5678 5678 5679 5680 5680 5681 5682 5682 5683 5684 5684 5685 5686 5686 5686 5687 5687 5687 5687 5687 5687 5688 5688 5689 5691 5693 5693 5693 5691 5691 5691 5692 5692 5692 5692
5675 5675 5674 5673 5673 5672 5672 5672 5672 5672 5673 5674 5674 5675 5676 5676 5677 5678 5679 5679 5680 5680 5681 5681 5682 5682 5682 5682 5682 5682 5683 5685 5688 5688 5688 5687 5686 5686 5687 5687 5687 5688 5688
5668 5668 5668 5667 5667 5667 5666 5666 5666 5666 5667 5667 5668 5668 5669 5670 5671 5672 5673 5673 5674 5675 5675 5675 5676 5676 5676 5676 5676 5677 5678 5679 5682 5682 5682 5682 5681 5681 5682 5682 5682 5682 5683
5660 5661 5661 5661 5661 5661 5660 5660 5660 5660 5660 5661 5662 5662 5663 5665 5666 5666 5667 5667 5668 5669 5669 5670 5670 5670 5671 5671 5671 5671 5672 5675 5677 5677 5677 5676 5676 5676 5677 5677 5677 5677 5678
5654 5654 5655 5655 5655 5655 5654 5654 5654 5655 5655 5656 5657 5657 5658 5659 5661 5661 5660 5660 5662 5663 5663 5664 5664 5665 5665 5666 5665 5666 5668 5670 5671 5671 5670 5670 5670 5671 5671 5671 5672 5672 5672
5649 5648 5648 5648 5648 5648 5648 5649 5649 5649 5649 5650 5651 5652 5653 5654 5654 5655 5655 5655 5656 5657 5659 5659 5659 5661 5661 5661 5661 5662 5663 5664 5665 5665 5664 5663 5664 5665 5665 5666 5666 5666 5667
5642 5642 5642 5641 5642 5642 5642 5642 5642 5643 5643 5644 5644 5645 5647 5648 5649 5650 5650 5651 5651 5652 5653 5654 5654 5655 5656 5656 5656 5657 5657 5658 5658 5658 5658 5657 5657 5658 5659 5659 5660 5660 5661
5635 5636 5635 5635 5635 5635 5635 5636 5636 5636 5637 5637 5637 5638 5639 5642 5643 5644 5644 5644 5646 5646 5647 5647 5649 5650 5650 5651 5650 5651 5651 5651 5652 5652 5651 5650 5651 5651 5652 5653 5654 5654 5654
5628 5629 5628 5628 5628 5629 5629 5629 5629 5629 5629 5629 5630 5631 5632 5634 5636 5636 5638 5638 5639 5640 5641 5642 5643 5643 5644 5644 5644 5644 5645 5645 5645 5645 5645 5645 5644 5645 5645 5646 5647 5648 5648
5621 5621 5621 5621 5621 5622 5622 5622 5623 5622 5622 5622 5623 5624 5625 5626 5628 5629 5630 5632 5632 5633 5634 5635 5636 5636 5636 5637 5637 5637 5637 5638 5638 5638 5638 5639 5639 5638 5639 5639 5640 5641 5641
5613 5613 5613 5613 5614 5614 5615 5614 5615 5615 5615 5615 5616 5616 5617 5618 5620 5621 5623 5624 5625 5626 5627 5628 5629 5629 5629 5630 5630 5630 5630 5630 5631 5631 5631 5632 5632 5633 5633 5633 5633 5634 5634
5605 5605 5605 5605 5606 5606 5606 5605 5606 5606 5607 5608 5608 5609 5610 5611 5612 5614 5615 5616 5617 5618 5620 5621 5622 5622 5622 5622 5622 5622 5623 5623 5623 5623 5624 5625 5625 5625 5626 5626 5626 5626 5627
5595 5595 5595 5596 5597 5597 5597 5597 5597 5598 5598 5599 5601 5601 5602 5603 5604 5606 5607 5608 5609 5611 5612 5613 5614 5614 5614 5614 5614 5614 5614 5615 5615 5616 5617 5617 5618 5618 5619 5619 5620 5620 5620
5584 5585 5585 5587 5588 5588 5589 5590 5590 5591 5591 5592 5592 5593 5594 5595 5596 5598 5599 5600 5601 5603 5605 5606 5607 5606 5606 5606 5606 5606 5606 5607 5608 5608 5609 5610 5611 5611 5611 5612 5612 5613 5613
5574 5575 5576 5577 5578 5579 5581 5582 5583 5583 5583 5583 5583 5585 5586 5587 5588 5590 5592 5593 5594 5595 5597 5598 5599 5599 5598 5598 5600 5601 5601 5600 5600 5601 5602 5603 5604 5603 5604 5604 5604 5605 5605
5564 5565 5566 5568 5569 5570 5572 5573 5574 5574 5574 5575 5576 5577 5578 5579 5580 5582 5583 5585 5586 5587 5589 5590 5591 5592 5592 5591 5593 5595 5596 5597 5596 5594 5594 5594 5595 5596 5596 5596 5596 5596 5597
5553 5553 5555 5557 5559 5561 5563 5565 5567 5568 5570 5570 5570 5570 5570 5571 5573 5574 5575 5577 5578 5579 5581 5582 5583 5584 5585 5584 5584 5585 5588 5591 5590 5589 5587 5587 5586 5587 5587 5587 5587 5588 5588
5540 5542 5544 5547 5549 5552 5553 5555 5557 5559 5561 5561 5562 5562 5563 5563 5564 5565 5567 5568 5570 5572 5573 5574 5575 5576 5578 5578 5578 5577 5577 5578 5581 5582 5582 5580 5578 5578 5578 5578 5578 5579 5578
5529 5531 5533 5536 5539 5542 5543 5546 5548 5550 5551 5552 5553 5554 5555 5555 5556 5557 5558 5560 5562 5563 5565 5566 5567 5568 5569 5570 5570 5570 5571 5572 5573 5574 5575 5573 5572 5570 5569 5569 5569 5569 5568